Vorticity
4 5 5 1 3 4 3 3 2 2 1 -1 1 1 -0 1 2 2 2 2 5 3 4 4 4 4 4 6 6 8 4 2 4 5 5 -1 -1 0 -2 8 17 13 30 15 5
3 3 3 3 2 2 2 3 4 2 3 1 1 3 -1 1 3 3 4 3 4 5 5 4 4 4 5 4 2 3 2 -0 -6 -4 -4 -2 -6 4 11 18 15 11 11 26 5
3 3 3 2 3 4 4 2 5 5 4 6 4 4 2 4 4 4 5 6 6 5 5 4 6 -5 -3 -1 -1 3 -4 -2 1 14 26 53 37 17 19 21 10 7 8 10 4
5 3 6 6 3 6 3 9 7 5 6 7 6 8 8 5 6 6 6 7 7 6 4 5 4 5 3 -4 2 2 20 35 42 12 20 11 11 17 8 10 9 7 7 10 10
5 5 5 6 6 7 8 7 8 7 7 3 2 5 3 4 -1 5 3 1 1 3 2 2 -5 -4 -5 10 29 33 2 7 8 7 7 7 9 9 9 9 11 11 12 11 10
-0 1 6 8 8 4 4 -1 -1 -1 -1 -6 -5 -2 0 -7 -5 -3 2 13 -14 5 13 20 31 35 27 29 6 7 5 9 11 12 9 6 5 9 7 7 10 10 10 8 7
6 13 7 4 6 5 -2 3 -4 3 3 -11 1 9 -6 7 -2 -7 7 1 18 -11 42 8 11 8 6 6 9 7 9 11 11 7 4 3 11 13 10 9 6 4 5 5 8
3 12 6 1 4 -2 2 1 6 -7 -4 29 30 14 56 -2 -7 16 30 10 20 30 7 6 7 7 7 9 9 9 14 11 7 6 6 9 6 5 6 6 6 5 6 9 9
2 -3 8 -4 5 -3 9 -6 -2 11 19 22 15 18 38 34 5 33 30 16 3 7 8 10 9 8 9 10 9 5 4 5 5 4 10 9 13 10 4 7 15 11 12 10 12
0 4 0 0 1 -4 5 -13 -11 16 20 8 17 15 9 13 8 7 3 5 8 6 6 6 4 6 8 7 7 8 10 7 7 9 7 9 -1 3 6 4 12 11 7 10 7
18 7 13 -14 -1 9 18 32 44 7 14 10 9 6 5 5 4 5 6 6 6 5 7 5 1 8 6 5 5 5 5 4 5 7 4 0 -6 15 -0 0 10 7 3 10 -2
16 18 5 18 -2 -1 12 18 5 12 10 7 5 1 4 6 4 2 3 3 6 5 5 4 1 4 4 6 3 3 1 6 6 6 0 1 -4 12 5 9 14 4 4 -5 6
8 8 15 18 22 25 15 6 7 3 4 -1 3 -0 4 3 4 1 -2 3 8 8 9 2 -1 2 2 6 5 5 3 6 4 7 4 -1 -10 9 3 6 14 5 5 0 2
6 -1 5 10 9 8 6 3 8 13 6 7 5 -0 5 2 1 8 0 3 1 8 7 -1 4 -1 0 4 5 7 9 9 8 6 2 6 -30 -2 11 3 26 9 3 -3 2
4 7 9 -3 3 7 6 2 1 2 8 13 4 4 6 3 7 4 4 4 1 1 10 4 1 3 5 7 4 4 5 8 5 9 4 35 18 -30 2 9 25 8 8 -3 2
2 8 -4 17 9 -0 12 3 0 8 -1 4 5 4 7 -1 -2 1 7 4 2 4 1 8 3 1 -0 2 3 2 4 8 8 12 -4 18 -7 -22 -2 3 14 4 1 14 13
-4 11 18 1 9 -1 9 2 3 -0 11 3 5 8 -2 -4 6 14 4 -6 5 5 7 4 6 3 3 3 8 7 7 6 5 6 -2 13 5 2 -1 13 1 6 1 -2 11
-13 27 -0 22 -7 1 10 5 7 -4 4 10 5 3 -3 -3 7 5 1 -1 2 3 7 5 5 9 5 5 5 8 11 7 12 12 10 8 0 4 8 8 13 9 9 8 5
11 -6 23 -3 10 10 8 0 8 5 4 8 3 -1 -1 7 9 0 1 2 -0 2 7 5 4 11 11 7 11 10 9 6 7 7 15 16 14 6 8 9 23 18 22 30 28
-5 -8 14 -15 23 6 8 15 -8 11 0 6 4 4 7 8 8 4 6 8 9 9 9 3 10 8 13 21 15 7 11 10 6 3 14 8 9 1 17 28 29 27 10 16 31
-8 15 4 14 9 7 8 6 2 11 3 7 13 6 10 11 11 11 6 11 13 14 14 19 19 13 11 5 2 6 6 8 10 13 5 4 -22 13 3 22 -3 1 -12 1 27
15 -5 -9 16 21 5 10 8 11 8 11 13 6 14 23 27 26 22 19 15 19 13 12 8 14 15 9 4 4 6 9 6 13 11 8 21 14 35 31 20 37 36 14 49 35
8 40 31 22 24 12 20 19 5 2 14 31 31 20 15 15 19 16 19 18 13 9 6 5 8 10 9 5 8 7 11 18 25 29 26 23 18 6 14 -8 -3 20 35 4 -15
4 6 8 0 20 20 19 27 26 34 30 15 10 9 5 1 2 4 3 3 4 5 13 14 11 12 10 10 14 8 2 36 26 17 20 10 24 38 11 22 27 -2 -26 48 12
13 18 23 14 17 12 14 12 13 8 6 0 2 7 8 8 6 10 10 6 9 6 6 5 5 7 7 23 19 18 28 23 15 9 -4 2 2 -3 -5 2 41 32 1 -4 -8
4 9 11 15 1 10 18 8 15 16 16 13 15 7 2 5 7 6 9 8 9 7 5 6 9 12 4 27 21 20 19 19 19 11 8 4 2 22 16 -0 7 14 18 26 20
9 11 2 13 2 6 7 7 7 7 10 12 8 7 9 10 9 12 9 6 5 1 2 13 24 22 32 11 8 10 17 12 9 5 7 10 5 13 5 4 5 38 15 18 9
Height
5803 5806 5810 5813 5817 5819 5822 5825 5827 5831 5833 5835 5837 5838 5841 5842 5842 5843 5845 5846 5847 5847 5847 5848 5849 5849 5848 5847 5846 5846 5845 5846 5848 5847 5847 5847 5848 5849 5844 5839 5840 5836 5832 5831 5832
5794 5797 5801 5804 5808 5811 5814 5817 5820 5823 5826 5828 5829 5831 5833 5835 5835 5835 5838 5839 5839 5841 5841 5840 5841 5841 5841 5841 5839 5838 5836 5839 5837 5838 5837 5835 5835 5835 5835 5833 5835 5826 5822 5822 5825
5784 5788 5791 5795 5798 5801 5804 5808 5811 5814 5817 5819 5820 5823 5824 5826 5826 5829 5829 5830 5832 5832 5832 5832 5832 5832 5833 5832 5832 5830 5830 5830 5829 5827 5826 5822 5822 5822 5824 5828 5828 5820 5817 5814 5816
5774 5778 5782 5785 5788 5791 5794 5797 5801 5804 5807 5810 5811 5813 5815 5815 5818 5819 5820 5821 5821 5822 5823 5823 5824 5823 5824 5823 5823 5821 5822 5819 5819 5819 5817 5812 5812 5815 5815 5822 5816 5814 5811 5809 5808
5762 5767 5771 5775 5778 5781 5784 5787 5791 5794 5797 5800 5801 5803 5804 5806 5809 5807 5810 5812 5812 5813 5813 5814 5813 5812 5813 5813 5812 5811 5813 5812 5810 5811 5809 5806 5807 5805 5814 5810 5808 5808 5807 5805 5804
5749 5755 5759 5763 5767 5770 5773 5776 5779 5783 5785 5787 5789 5790 5792 5796 5797 5797 5799 5801 5803 5802 5802 5803 5803 5801 5801 5803 5804 5804 5804 5804 5804 5801 5798 5799 5800 5801 5806 5802 5801 5801 5801 5800 5799
5737 5742 5748 5751 5755 5758 5761 5765 5768 5770 5772 5774 5776 5776 5779 5785 5785 5786 5788 5789 5789 5791 5793 5794 5793 5793 5794 5794 5795 5795 5796 5795 5794 5792 5790 5791 5795 5797 5794 5794 5795 5794 5794 5794 5794
5723 5729 5734 5738 5743 5746 5749 5753 5757 5758 5762 5763 5762 5762 5762 5770 5772 5772 5774 5776 5779 5781 5783 5784 5784 5784 5784 5785 5785 5785 5786 5785 5786 5783 5783 5786 5790 5788 5788 5788 5787 5786 5786 5787 5787
5708 5715 5721 5726 5730 5734 5738 5741 5742 5746 5750 5750 5751 5751 5751 5755 5760 5760 5762 5765 5769 5772 5773 5775 5775 5775 5776 5776 5777 5776 5774 5774 5774 5775 5778 5779 5783 5781 5781 5782 5782 5781 5780 5779 5779
5694 5701 5707 5712 5716 5720 5724 5727 5731 5733 5737 5740 5741 5743 5743 5747 5750 5753 5754 5757 5760 5762 5765 5767 5767 5766 5768 5768 5766 5766 5767 5765 5766 5768 5767 5769 5773 5774 5774 5774 5775 5775 5772 5771 5769
5679 5685 5691 5698 5702 5706 5710 5714 5718 5723 5726 5729 5731 5734 5736 5738 5742 5744 5746 5749 5750 5753 5755 5756 5758 5758 5758 5757 5757 5756 5756 5755 5756 5756 5756 5759 5763 5768 5767 5765 5765 5764 5765 5764 5761
5665 5671 5677 5683 5688 5692 5696 5702 5708 5710 5713 5716 5720 5723 5727 5729 5732 5734 5738 5740 5742 5744 5745 5748 5748 5748 5747 5748 5747 5746 5745 5743 5744 5741 5741 5744 5752 5758 5757 5755 5757 5756 5754 5752 5750
5650 5657 5664 5669 5674 5678 5685 5691 5694 5697 5699 5706 5709 5713 5715 5717 5720 5725 5725 5729 5732 5734 5737 5737 5738 5736 5738 5738 5737 5735 5732 5732 5731 5729 5731 5731 5738 5744 5746 5748 5745 5742 5742 5738 5737
5638 5645 5649 5656 5660 5667 5673 5680 5682 5685 5686 5692 5699 5700 5702 5705 5708 5712 5715 5718 5719 5724 5725 5725 5726 5727 5724 5724 5725 5723 5722 5720 5720 5717 5718 5718 5715 5730 5734 5738 5731 5728 5726 5722 5725
5624 5630 5635 5643 5650 5655 5666 5667 5668 5674 5672 5680 5681 5686 5690 5694 5698 5700 5703 5705 5707 5709 5712 5714 5712 5712 5712 5713 5710 5709 5707 5706 5705 5702 5702 5716 5691 5715 5726 5721 5717 5710 5710 5709 5709
5608 5615 5619 5624 5633 5642 5648 5649 5654 5657 5655 5663 5668 5671 5676 5680 5684 5686 5688 5691 5694 5696 5699 5699 5698 5698 5698 5698 5697 5693 5692 5691 5688 5686 5685 5701 5681 5692 5703 5701 5693 5695 5695 5694 5694
5593 5598 5600 5609 5618 5625 5630 5634 5636 5637 5644 5651 5657 5659 5660 5664 5667 5671 5673 5676 5678 5681 5684 5686 5684 5684 5684 5682 5680 5678 5676 5674 5672 5670 5667 5678 5665 5668 5678 5680 5672 5672 5673 5674 5673
5575 5580 5584 5592 5601 5606 5613 5618 5616 5627 5631 5637 5642 5645 5648 5651 5652 5654 5658 5660 5663 5665 5669 5672 5670 5670 5668 5668 5667 5665 5661 5658 5648 5652 5653 5660 5646 5662 5650 5653 5651 5647 5650 5654 5652
5557 5561 5568 5575 5582 5588 5595 5596 5602 5611 5618 5622 5628 5630 5633 5636 5639 5641 5643 5646 5648 5650 5653 5656 5657 5656 5654 5652 5653 5653 5649 5644 5634 5633 5626 5634 5633 5635 5637 5632 5628 5626 5622 5622 5623
5541 5546 5551 5559 5566 5570 5576 5579 5587 5597 5602 5604 5610 5615 5618 5622 5625 5627 5628 5632 5632 5633 5634 5639 5644 5643 5639 5635 5635 5634 5633 5632 5627 5617 5611 5610 5607 5609 5616 5610 5605 5601 5597 5596 5595
5525 5528 5534 5545 5548 5548 5555 5564 5574 5579 5585 5590 5594 5600 5603 5605 5609 5610 5613 5615 5617 5618 5620 5622 5626 5632 5627 5620 5620 5621 5618 5615 5610 5602 5593 5587 5589 5599 5590 5585 5585 5585 5582 5579 5575
5503 5512 5521 5523 5528 5527 5540 5551 5560 5564 5571 5577 5580 5584 5587 5589 5593 5597 5600 5601 5603 5603 5605 5606 5608 5616 5617 5607 5605 5602 5601 5596 5586 5582 5580 5571 5570 5579 5575 5569 5567 5565 5567 5563 5560
5487 5497 5500 5502 5506 5515 5525 5535 5546 5551 5558 5563 5566 5569 5576 5577 5581 5584 5587 5590 5589 5591 5591 5592 5592 5595 5600 5595 5584 5583 5585 5579 5566 5562 5564 5557 5554 5567 5560 5558 5556 5552 5552 5554 5549
5473 5478 5481 5490 5501 5508 5517 5523 5532 5537 5545 5549 5554 5557 5563 5567 5571 5573 5577 5577 5576 5576 5575 5574 5577 5579 5577 5576 5565 5569 5571 5562 5551 5552 5551 5544 5542 5548 5549 5544 5543 5544 5540 5539 5535
5459 5465 5477 5484 5492 5500 5506 5514 5519 5526 5532 5537 5544 5548 5549 5555 5559 5562 5564 5564 5564 5564 5563 5561 5563 5562 5560 5555 5550 5550 5553 5550 5547 5545 5534 5537 5534 5538 5533 5532 5532 5530 5531 5530 5530
5453 5460 5467 5475 5482 5489 5495 5503 5511 5518 5522 5527 5534 5536 5537 5544 5547 5552 5553 5553 5554 5552 5547 5546 5544 5544 5545 5540 5534 5536 5538 5537 5536 5535 5529 5524 5521 5527 5522 5520 5520 5518 5517 5518 5518
5443 5451 5458 5465 5472 5479 5486 5492 5498 5505 5509 5514 5520 5527 5528 5530 5535 5539 5542 5539 5540 5539 5536 5533 5529 5529 5531 5526 5524 5527 5532 5527 5523 5524 5519 5513 5513 5510 5509 5506 5506 5503 5502 5504 5505